sat.trackr.live / text

‹ back to catalog

STARLINK-34328

NORAD 64220 · 2025-117T

PAYLOAD ACTIVE UNKNOWN

§ Identity

Operator
Country
US
Launch date
2025-05-31
Launch site
AFWTR
Launch vehicle
Mass (kg)
RCS (m²)

Purposes: comms

External: N2YO · Heavens-Above · Gunter

§ Orbital elements

Epoch: 2026-09-20T07:01:42.184704Z

Period
93.85 min
Inclination
53.1581°
Eccentricity
0.0001206
Mean motion
15.34410507 rev/d
Perigee alt
461.8 km
Apogee alt
463.5 km
Semi-major
6,840.8 km
B*
7.6895e-4
RAAN
212.6204°
Arg perigee
74.6754°
Mean anomaly
285.4382°
Rev number
7,436

§ Raw data

STARLINK-343281 64220U 25117T   26263.29284936  .00025702  00000+0  76895-3 0  99952 64220  53.1581 212.6204 0001206  74.6754 285.4382 15.34410507 74360

JSON: /api/v1/satellites/64220 · /tle

For live sub-satellite position, see the globe view (requires WebGL).

§ Visibility from observer

Set your observer location to see the next 7 days of passes ≥ 10°. The values pass through the URL so the page stays shareable.

No JS? Fill the form by hand. The geolocation button needs JavaScript.